Location: Alando
(42.3054°N, 9.2895°E)
Time: 12:19:38
(UTC+00:00)

COSMOS 2406 - Pass Details

Date: 09 April 2020
Orbit: 842 x 865 km, 71.0° (Epoch: 05 June)

Event Time Altitude Azimuth Distance (km) Brightness Sun altitude
Exits shadow 20:54:57 44° 237° (WSW) 1,158 3.9 -29.3°
Maximum altitude 20:56:36 63° 297° (WNW) 942 3.5 -29.5°
Drops below altitude 10° 21:02:16 10° 19° (NNE) 2,488 5.9 -30.2°
Sets 21:04:46 0° 22° (NNE) 3,431 6.7 -30.5°
